Location: Chevoux
(46.3801°N, 4.9476°E)
Time: 07:31:28
(UTC+00:00)

X-37B - Pass Details

Date: 20 April 2021
Orbit: 386 x 389 km, 45.0° (Epoch: 08 May)

Event Time Altitude Azimuth Distance (km) Brightness Sun altitude
Exits shadow 02:57:04 46° 185° (S) 527 0.9 -17.1°
Maximum altitude 02:57:21 48° 165° (SSE) 513 1.0 -17.1°
Drops below altitude 10° 03:00:26 10° 90° (E) 1,414 4.2 -16.6°
Sets 03:02:32 0° 84° (E) 2,269 5.5 -16.4°
